TimeEDT,TemperatureF,Dew PointF,Humidity,Sea Level PressureIn,VisibilityMPH,Wind Direction,Wind SpeedMPH,Gust SpeedMPH,PrecipitationIn,Events,Conditions,WindDirDegrees,DateUTC
12:53 AM,60.1,57.9,93,30.06,10.0,Calm,Calm,-,N/A,,Clear,0,2013-09-30 04:53:00
1:53 AM,57.9,55.9,93,30.05,10.0,Calm,Calm,-,N/A,,Clear,0,2013-09-30 05:53:00
2:53 AM,57.0,55.9,96,30.05,8.0,Calm,Calm,-,N/A,,Clear,0,2013-09-30 06:53:00
3:01 AM,57.0,55.9,96,30.07,2.5,Calm,Calm,-,N/A,,Scattered Clouds,0,2013-09-30 07:01:00
3:05 AM,55.9,55.9,100,30.07,1.8,Calm,Calm,-,N/A,,Mostly Cloudy,0,2013-09-30 07:05:00
3:16 AM,55.9,55.9,100,30.08,0.2,Calm,Calm,-,N/A,Fog,Fog,0,2013-09-30 07:16:00
3:53 AM,57.0,57.0,100,30.05,0.2,Calm,Calm,-,N/A,Fog,Fog,0,2013-09-30 07:53:00
4:53 AM,57.0,57.0,100,30.06,0.2,Calm,Calm,-,N/A,Fog,Fog,0,2013-09-30 08:53:00
5:53 AM,57.0,57.0,100,30.07,0.2,Calm,Calm,-,N/A,Fog,Fog,0,2013-09-30 09:53:00
6:53 AM,55.9,55.9,100,30.08,0.2,Calm,Calm,-,N/A,Fog,Fog,0,2013-09-30 10:53:00
7:53 AM,55.9,55.9,100,30.09,0.2,Calm,Calm,-,N/A,Fog,Fog,0,2013-09-30 11:53:00
8:53 AM,55.9,55.9,100,30.10,0.2,Calm,Calm,-,N/A,Fog,Fog,0,2013-09-30 12:53:00
9:53 AM,57.9,57.0,97,30.11,0.5,Calm,Calm,-,N/A,Fog,Fog,0,2013-09-30 13:53:00
10:20 AM,59.0,57.9,96,30.12,1.5,Calm,Calm,-,N/A,,Overcast,0,2013-09-30 14:20:00
10:24 AM,59.0,57.9,96,30.13,3.0,Calm,Calm,-,N/A,,Overcast,0,2013-09-30 14:24:00
10:53 AM,61.0,57.9,90,30.10,9.0,Calm,Calm,-,N/A,,Overcast,0,2013-09-30 14:53:00
11:16 AM,63.0,59.0,87,30.12,10.0,Calm,Calm,-,N/A,,Overcast,0,2013-09-30 15:16:00
11:38 AM,64.0,59.0,84,30.11,10.0,Calm,Calm,-,N/A,,Scattered Clouds,0,2013-09-30 15:38:00
11:53 AM,66.0,59.0,78,30.09,10.0,Calm,Calm,-,N/A,,Scattered Clouds,0,2013-09-30 15:53:00
12:53 PM,71.1,57.0,61,30.06,10.0,Calm,Calm,-,N/A,,Clear,0,2013-09-30 16:53:00
1:53 PM,73.9,57.0,55,30.05,10.0,Variable,4.6,-,N/A,,Scattered Clouds,0,2013-09-30 17:53:00
2:53 PM,73.9,57.0,55,30.03,10.0,Variable,4.6,-,N/A,,Mostly Cloudy,0,2013-09-30 18:53:00
3:53 PM,75.9,55.9,50,30.01,10.0,Calm,Calm,-,N/A,,Mostly Cloudy,0,2013-09-30 19:53:00
4:53 PM,75.0,55.9,51,30.01,10.0,Variable,4.6,-,N/A,,Clear,0,2013-09-30 20:53:00
5:53 PM,75.0,55.9,51,30.01,10.0,Variable,3.5,-,N/A,,Partly Cloudy,0,2013-09-30 21:53:00
6:53 PM,73.0,55.9,55,30.01,10.0,Calm,Calm,-,N/A,,Clear,0,2013-09-30 22:53:00
7:53 PM,69.1,61.0,75,30.04,10.0,Calm,Calm,-,N/A,,Overcast,0,2013-09-30 23:53:00
8:53 PM,64.9,60.1,84,30.05,10.0,Calm,Calm,-,N/A,,Clear,0,2013-10-01 00:53:00
9:53 PM,63.0,60.1,90,30.07,10.0,Calm,Calm,-,N/A,,Clear,0,2013-10-01 01:53:00
10:53 PM,62.1,59.0,90,30.08,10.0,Calm,Calm,-,N/A,,Clear,0,2013-10-01 02:53:00
11:53 PM,60.1,57.9,93,30.08,10.0,Calm,Calm,-,N/A,,Mostly Cloudy,0,2013-10-01 03:53:00